Location: La Comballaz
(46.3780°N, 7.0817°E)
Time: 06:07:35
(UTC+00:00)

N. Korean satellite - Pass Details

Date: 11 December 2021
Orbit: 447 x 491 km, 97.3° (Epoch: 25 January)

Event Time Altitude Azimuth Distance (km) Brightness Sun altitude
Rises 16:45:47 0° 201° (SSW) 2,500 10.9 -10.1°
Reaches altitude 10° 16:48:17 10° 219° (SW) 1,620 10.3 -10.5°
Maximum altitude 16:50:49 19° 266° (W) 1,171 9.6 -10.9°
Drops below altitude 10° 16:53:21 10° 314° (NW) 1,612 9.5 -11.3°
Sets 16:55:50 0° 333° (NNW) 2,484 10.2 -11.7°
